Simultaneous Nadir Overpasses (SNOs) Predictions

Prediction of SNOs between GOES-17 and AQUA Satellite Orbit:

Table of predicted SNOs for the next 14.0 days since TLE Epoch: 7/23/2022
Index Date Time (GOES-17) GOES-17 Lat,Lon AQUA Lat,Lon Distance(km) Time Diff (sec)
1 07/23/2022 22:32:24 -0.05,-137.30 0.70,-133.69 409.49 80
2 07/24/2022 10:56:13 0.05,-137.30 0.35,-138.82 173.32 80
3 07/26/2022 10:40:55 0.04,-137.29 -0.29,-135.75 175.46 80
4 07/26/2022 23:04:51 -0.04,-137.29 -0.84,-140.90 411.62 80
5 07/28/2022 22:52:14 -0.04,-137.28 -0.18,-137.83 63.31 80
6 07/30/2022 22:39:36 -0.04,-137.27 0.50,-134.76 284.90 80
7 07/31/2022 11:00:43 0.04,-137.26 0.61,-139.88 298.22 80
8 08/02/2022 10:45:24 0.04,-137.24 -0.03,-136.80 49.57 80
9 08/04/2022 10:35:25 0.03,-137.22 -0.68,-133.72 396.64 80
10 08/04/2022 22:54:03 -0.03,-137.21 -0.36,-138.89 191.03 80
